This is the latest recevied weather packets stored in our database for station/object N0QV. If no packets are shown the sender has not sent any weather packets the latest 10 day(s).
| Time | Temp. | Humidity | Pressure | Rain* | Wind** | Luminosity | Snow |
|---|---|---|---|---|---|---|---|
| 1788482711 | 27.22° C | 80% | 1008.7 hPa | 0 mm | - | 3 W/m² | - |
| 1788482411 | 27.78° C | 79% | 1008.4 hPa | 0 mm | - | 4 W/m² | - |
| 1788482107 | 27.78° C | 79% | 1008.6 hPa | 0 mm | - | 8 W/m² | - |
| 1788481802 | 27.78° C | 78% | 1008.5 hPa | 0 mm | - | 10 W/m² | - |
| 1788481498 | 28.33° C | 78% | 1008.6 hPa | 0 mm | - | 13 W/m² | - |
| 1788481197 | 28.33° C | 76% | 1008.4 hPa | 0 mm | - | 18 W/m² | - |
| 1788480893 | 28.33° C | 76% | 1008.2 hPa | 0 mm | - | 26 W/m² | - |
| 1788480593 | 28.89° C | 75% | 1008.6 hPa | 0 mm | - | 42 W/m² | - |
| 1788480292 | 28.89° C | 74% | 1008.1 hPa | 0 mm | - | 46 W/m² | - |
| 1788479988 | 28.33° C | 75% | 1008.2 hPa | 0 mm | - | 39 W/m² | - |
| 1788479684 | 28.33° C | 76% | 1008.2 hPa | 0 mm | - | 37 W/m² | - |
| 1788479383 | 28.33° C | 75% | 1008.5 hPa | 0 mm | - | 33 W/m² | - |
| 1788479079 | 28.89° C | 74% | 1008.3 hPa | 0 mm | - | 32 W/m² | - |
| 1788478776 | 28.89° C | 74% | 1008.5 hPa | 0 mm | - | 39 W/m² | - |
| 1788478471 | 28.89° C | 72% | 1008.3 hPa | 0 mm | - | 47 W/m² | - |
| 1788478174 | 28.89° C | 71% | 1008.4 hPa | 0 mm | - | 52 W/m² | - |
| 1788477866 | 29.44° C | 71% | 1008.5 hPa | 0 mm | - | 35 W/m² | - |
| 1788477566 | 29.44° C | 70% | 1008.7 hPa | 0 mm | - | 35 W/m² | - |
| 1788477261 | 30° C | 68% | 1008.4 hPa | 0 mm | - | 43 W/m² | - |
| 1788476956 | 30° C | 68% | 1008.7 hPa | 0 mm | - | 58 W/m² | - |
| 1788476652 | 30.56° C | 67% | 1008.9 hPa | 0 mm | - | 64 W/m² | - |
| 1788476348 | 30.56° C | 67% | 1008.8 hPa | 0 mm | - | 74 W/m² | - |
| 1788476043 | 30° C | 67% | 1008.9 hPa | 0 mm | - | 121 W/m² | - |
| 1788475739 | 30° C | 68% | 1008.4 hPa | 0 mm | - | 86 W/m² | - |
| 1788475435 | 30° C | 69% | 1008.5 hPa | 0 mm | - | 73 W/m² | - |
* Rain latest hour (hover to see other rain measurements)
** Current wind speed in m/s (hover to see current wind gust speed)